| time (UTC) | temp F | wind direction | speed knots | gust knots | rain 1hr in | rain 24hr in | rain mn in | humidity % | barometer mb |
| 20260905223425 | 58 | 228 | 0.0 | 0.0 | 0.00 | 0.00 | 0.00 | 61 | 1023.6 |
| 20260905222424 | 60 | 227 | 0.0 | 0.0 | 0.00 | 0.00 | 0.00 | 59 | 1023.6 |
| 20260905221424 | 61 | 233 | 0.0 | 0.0 | 0.00 | 0.00 | 0.00 | 56 | 1023.5 |
| 20260905220423 | 62 | 233 | 0.0 | 0.0 | 0.00 | 0.00 | 0.00 | 55 | 1023.7 |
| 20260905215423 | 62 | 244 | 1.7 | 2.6 | 0.00 | 0.00 | 0.10 | 55 | 1023.6 |
| 20260905214422 | 62 | 248 | 2.6 | 3.5 | 0.00 | 0.00 | 0.10 | 55 | 1023.3 |
| 20260905213422 | 63 | 242 | 1.7 | 2.6 | 0.00 | 0.00 | 0.10 | 55 | 1023.2 |
| 20260905212421 | 63 | 230 | 1.7 | 1.7 | 0.00 | 0.00 | 0.10 | 54 | 1023.2 |
| 20260905211420 | 63 | 236 | 1.7 | 2.6 | 0.00 | 0.00 | 0.10 | 54 | 1023.2 |
| 20260905210420 | 64 | 232 | 3.5 | 3.5 | 0.00 | 0.00 | 0.10 | 54 | 1022.9 |
| 20260905205419 | 64 | 259 | 3.5 | 4.3 | 0.00 | 0.00 | 0.10 | 55 | 1022.9 |
| 20260905204419 | 64 | 233 | 1.7 | 2.6 | 0.00 | 0.00 | 0.10 | 57 | 1022.6 |
| 20260905203418 | 64 | 235 | 1.7 | 2.6 | 0.00 | 0.00 | 0.10 | 57 | 1022.8 |
| 20260905202418 | 65 | 239 | 0.9 | 1.7 | 0.00 | 0.00 | 0.10 | 57 | 1022.5 |
| 20260905201417 | 64 | 241 | 0.9 | 1.7 | 0.00 | 0.00 | 0.10 | 58 | 1022.6 |
| 20260905200417 | 64 | 234 | 0.0 | 1.7 | 0.00 | 0.00 | 0.10 | 59 | 1022.2 |
| 20260905195416 | 64 | 234 | 0.0 | 1.7 | 0.00 | 0.00 | 0.10 | 58 | 1022.0 |
| 20260905194416 | 64 | 238 | 1.7 | 1.7 | 0.00 | 0.00 | 0.10 | 58 | 1021.8 |
| 20260905193415 | 64 | 230 | 0.0 | 0.0 | 0.00 | 0.00 | 0.10 | 59 | 1021.8 |
| 20260905192415 | 64 | 233 | 0.0 | 0.9 | 0.00 | 0.00 | 0.10 | 58 | 1021.8 |
| 20260905191414 | 65 | 229 | 0.0 | 0.0 | 0.00 | 0.00 | 0.10 | 57 | 1021.7 |
| 20260905190413 | 66 | 239 | 0.0 | 0.9 | 0.00 | 0.00 | 0.10 | 56 | 1021.6 |
| 20260905185413 | 66 | 231 | 0.0 | 0.9 | 0.00 | 0.00 | 0.10 | 55 | 1021.5 |
| 20260905184412 | 67 | 250 | 1.7 | 4.3 | 0.00 | 0.00 | 0.10 | 54 | 1021.3 |
| 20260905183412 | 66 | 162 | 1.7 | 2.6 | 0.00 | 0.00 | 0.10 | 54 | 1021.2 |
| 20260905182411 | 67 | 233 | 0.0 | 0.9 | 0.00 | 0.00 | 0.10 | 53 | 1021.1 |
| 20260905181411 | 67 | 238 | 0.9 | 1.7 | 0.00 | 0.00 | 0.10 | 52 | 1021.1 |
| 20260905180410 | 68 | 245 | 1.7 | 3.5 | 0.00 | 0.00 | 0.10 | 52 | 1020.8 |
| 20260905175410 | 68 | 221 | 1.7 | 3.5 | 0.00 | 0.00 | 0.10 | 51 | 1020.7 |
| 20260905174409 | 68 | 232 | 0.9 | 1.7 | 0.00 | 0.00 | 0.10 | 52 | 1020.5 |
| 20260905173409 | 68 | 240 | 0.9 | 2.6 | 0.00 | 0.00 | 0.10 | 53 | 1020.4 |
| 20260905172408 | 68 | 236 | 0.0 | 0.0 | 0.00 | 0.00 | 0.10 | 53 | 1020.4 |
| 20260905171408 | 69 | 222 | 3.5 | 4.3 | 0.00 | 0.00 | 0.10 | 52 | 1020.4 |
| 20260905170407 | 69 | 235 | 1.7 | 2.6 | 0.00 | 0.00 | 0.10 | 52 | 1020.4 |
| 20260905165407 | 69 | 248 | 2.6 | 3.5 | 0.00 | 0.00 | 0.10 | 51 | 1020.1 |
| 20260905164406 | 70 | 209 | 0.9 | 1.7 | 0.00 | 0.00 | 0.10 | 50 | 1020.2 |
| 20260905163405 | 71 | 249 | 4.3 | 7.0 | 0.00 | 0.00 | 0.10 | 48 | 1020.4 |
| 20260905162405 | 71 | 175 | 4.3 | 7.0 | 0.00 | 0.00 | 0.10 | 46 | 1019.9 |
| 20260905161404 | 71 | 228 | 6.1 | 8.7 | 0.00 | 0.00 | 0.10 | 46 | 1019.8 |
| 20260905160404 | 70 | 233 | 5.2 | 7.0 | 0.00 | 0.00 | 0.10 | 48 | 1019.9 |
| 20260905155403 | 71 | 259 | 7.0 | 9.6 | 0.00 | 0.00 | 0.10 | 48 | 1019.7 |
| 20260905154403 | 71 | 238 | 4.3 | 5.2 | 0.00 | 0.00 | 0.10 | 47 | 1019.7 |
| 20260905153402 | 72 | 220 | 3.5 | 7.0 | 0.00 | 0.00 | 0.10 | 45 | 1019.8 |
| 20260905152402 | 72 | 234 | 3.5 | 5.2 | 0.00 | 0.00 | 0.10 | 46 | 1019.6 |
| 20260905151401 | 70 | 233 | 1.7 | 3.5 | 0.00 | 0.00 | 0.10 | 49 | 1019.8 |
| 20260905150401 | 73 | 259 | 1.7 | 3.5 | 0.00 | 0.00 | 0.10 | 48 | 1019.9 |
| 20260905145400 | 72 | 233 | 1.7 | 2.6 | 0.00 | 0.00 | 0.10 | 48 | 1019.6 |
| 20260905144359 | 72 | 229 | 4.3 | 7.8 | 0.00 | 0.00 | 0.10 | 49 | 1019.9 |
| 20260905143359 | 72 | 239 | 5.2 | 7.8 | 0.00 | 0.00 | 0.10 | 49 | 1019.7 |
| 20260905142358 | 71 | 266 | 5.2 | 7.8 | 0.00 | 0.00 | 0.10 | 50 | 1020.1 |
| 20260905141358 | 72 | 222 | 3.5 | 4.3 | 0.00 | 0.00 | 0.10 | 50 | 1020.1 |
| 20260905140357 | 71 | 243 | 2.6 | 4.3 | 0.00 | 0.00 | 0.10 | 50 | 1019.9 |
| 20260905135357 | 72 | 274 | 5.2 | 9.6 | 0.00 | 0.00 | 0.10 | 49 | 1020.2 |
| 20260905134356 | 72 | 253 | 5.2 | 7.0 | 0.00 | 0.00 | 0.10 | 47 | 1019.9 |
| 20260905133356 | 71 | 261 | 2.6 | 3.5 | 0.00 | 0.00 | 0.10 | 49 | 1019.8 |
| 20260905132355 | 71 | 198 | 7.0 | 9.6 | 0.00 | 0.00 | 0.10 | 49 | 1019.9 |
| 20260905131355 | 72 | 275 | 10.4 | 18.2 | 0.00 | 0.00 | 0.10 | 46 | 1020.3 |
| 20260905130354 | 72 | 229 | 3.5 | 4.3 | 0.00 | 0.00 | 0.10 | 47 | 1020.4 |
| 20260905125354 | 73 | 235 | 5.2 | 9.6 | 0.00 | 0.00 | 0.10 | 48 | 1020.2 |
| 20260905124353 | 71 | 239 | 2.6 | 5.2 | 0.00 | 0.00 | 0.10 | 52 | 1020.1 |
| 20260905123352 | 71 | 251 | 5.2 | 7.0 | 0.00 | 0.00 | 0.10 | 52 | 1020.3 |
| 20260905122352 | 71 | 266 | 1.7 | 3.5 | 0.00 | 0.00 | 0.10 | 54 | 1020.2 |
| 20260905121351 | 71 | 225 | 1.7 | 3.5 | 0.00 | 0.00 | 0.10 | 54 | 1020.4 |
| 20260905120351 | 71 | 307 | 7.8 | 11.3 | 0.00 | 0.00 | 0.10 | 55 | 1020.5 |
| 20260905115350 | 70 | 242 | 5.2 | 7.8 | 0.00 | 0.00 | 0.10 | 55 | 1020.4 |
| 20260905114350 | 68 | 223 | 6.1 | 7.8 | 0.00 | 0.00 | 0.10 | 60 | 1020.3 |
| 20260905113349 | 69 | 232 | 6.1 | 7.8 | 0.00 | 0.00 | 0.10 | 57 | 1020.6 |
| 20260905112349 | 70 | 236 | 7.0 | 8.7 | 0.00 | 0.00 | 0.10 | 55 | 1020.4 |
| 20260905111348 | 70 | 272 | 4.3 | 7.0 | 0.00 | 0.00 | 0.10 | 54 | 1020.4 |
| 20260905110348 | 69 | 242 | 2.6 | 5.2 | 0.00 | 0.00 | 0.10 | 55 | 1020.5 |
| 20260905105347 | 68 | 253 | 6.1 | 7.8 | 0.00 | 0.00 | 0.10 | 55 | 1020.6 |
| 20260905104347 | 69 | 262 | 5.2 | 7.0 | 0.00 | 0.00 | 0.10 | 55 | 1020.5 |
| 20260905103346 | 68 | 257 | 3.5 | 5.2 | 0.00 | 0.00 | 0.10 | 57 | 1020.5 |
| 20260905102346 | 68 | 265 | 5.2 | 7.8 | 0.00 | 0.00 | 0.10 | 57 | 1020.5 |
| 20260905101345 | 67 | 232 | 7.0 | 8.7 | 0.00 | 0.00 | 0.10 | 59 | 1020.4 |
| 20260905100344 | 67 | 245 | 1.7 | 2.6 | 0.00 | 0.00 | 0.10 | 61 | 1020.4 |
| 20260905095344 | 66 | 239 | 5.2 | 7.0 | 0.00 | 0.00 | 0.10 | 61 | 1020.7 |
| 20260905094343 | 67 | 215 | 4.3 | 7.8 | 0.00 | 0.00 | 0.10 | 61 | 1020.7 |
| 20260905093343 | 65 | 242 | 7.8 | 11.3 | 0.00 | 0.00 | 0.10 | 63 | 1020.7 |
| 20260905092342 | 66 | 254 | 3.5 | 5.2 | 0.00 | 0.00 | 0.10 | 65 | 1020.6 |
| 20260905091342 | 65 | 246 | 0.9 | 1.7 | 0.00 | 0.00 | 0.10 | 68 | 1020.7 |
| 20260905090341 | 64 | 247 | 2.6 | 4.3 | 0.00 | 0.00 | 0.10 | 70 | 1020.8 |
| 20260905085341 | 62 | 212 | 0.0 | 1.7 | 0.00 | 0.00 | 0.10 | 75 | 1020.7 |
| 20260905084340 | 61 | 235 | 1.7 | 2.6 | 0.00 | 0.00 | 0.10 | 77 | 1020.8 |
| 20260905083340 | 61 | 229 | 0.0 | 1.7 | 0.00 | 0.00 | 0.10 | 78 | 1020.5 |
| 20260905082339 | 61 | 238 | 1.7 | 2.6 | 0.00 | 0.00 | 0.10 | 79 | 1020.3 |
| 20260905081339 | 60 | 235 | 0.0 | 0.0 | 0.00 | 0.00 | 0.10 | 81 | 1020.6 |
| 20260905080338 | 59 | 232 | 0.9 | 1.7 | 0.00 | 0.00 | 0.10 | 83 | 1020.5 |
| 20260905075338 | 59 | 232 | 1.7 | 3.5 | 0.00 | 0.00 | 0.10 | 84 | 1020.4 |
| 20260905074337 | 59 | 218 | 1.7 | 2.6 | 0.00 | 0.00 | 0.10 | 85 | 1020.3 |
| 20260905073336 | 58 | 240 | 0.0 | 0.0 | 0.00 | 0.00 | 0.10 | 85 | 1019.9 |
| 20260905072336 | 58 | 277 | 0.0 | 0.9 | 0.00 | 0.00 | 0.10 | 85 | 1019.7 |
| 20260905071335 | 58 | 206 | 0.9 | 1.7 | 0.00 | 0.00 | 0.10 | 85 | 1019.2 |
| 20260905070335 | 57 | 227 | 1.7 | 1.7 | 0.00 | 0.00 | 0.10 | 85 | 1019.0 |
| 20260905065334 | 58 | 235 | 0.9 | 1.7 | 0.00 | 0.00 | 0.10 | 85 | 1019.3 |
| 20260905064334 | 58 | 228 | 0.0 | 0.9 | 0.07 | 0.00 | 0.10 | 85 | 1019.5 |
| 20260905063333 | 57 | 228 | 0.0 | 0.0 | 0.00 | 0.00 | 0.09 | 84 | 1019.5 |
| 20260905062333 | 57 | 225 | 0.0 | 0.0 | 0.00 | 0.00 | 0.09 | 84 | 1019.3 |
| 20260905061332 | 57 | 226 | 0.0 | 0.0 | 0.00 | 0.00 | 0.09 | 83 | 1019.6 |
| 20260905060332 | 57 | 233 | 0.0 | 0.9 | 0.11 | 0.00 | 0.09 | 83 | 1019.8 |
| 20260905055331 | 58 | 232 | 0.0 | 0.0 | 0.04 | 0.00 | 0.07 | 82 | 1020.6 |
| 20260905054331 | 58 | 237 | 1.7 | 1.7 | 0.07 | 0.00 | 0.06 | 81 | 1020.4 |
| 20260905053330 | 58 | 227 | 2.6 | 3.5 | 0.00 | 0.00 | 0.05 | 82 | 1019.9 |
| 20260905052329 | 58 | 244 | 1.7 | 1.7 | 0.00 | 0.00 | 0.05 | 83 | 1019.6 |
| 20260905051329 | 58 | 231 | 0.0 | 0.9 | 0.00 | 0.00 | 0.05 | 82 | 1019.2 |
| 20260905050328 | 59 | 226 | 0.0 | 0.0 | 0.00 | 0.00 | 0.05 | 82 | 1019.1 |
| 20260905045328 | 59 | 233 | 0.0 | 0.0 | 0.00 | 0.00 | 0.05 | 81 | 1019.6 |
| 20260905044327 | 58 | 233 | 0.0 | 0.0 | 0.00 | 0.00 | 0.05 | 80 | 1019.0 |
| 20260905043327 | 58 | 231 | 0.0 | 0.0 | 0.00 | 0.00 | 0.05 | 79 | 1018.7 |
| 20260905042326 | 59 | 243 | 0.9 | 1.7 | 0.00 | 0.00 | 0.05 | 78 | 1018.7 |
| 20260905041326 | 60 | 222 | 0.9 | 1.7 | 0.11 | 0.00 | 0.03 | 77 | 1018.7 |
| 20260905040325 | 60 | 231 | 0.0 | 0.0 | 0.00 | 0.00 | 0.02 | 75 | 1018.2 |
| 20260905035325 | 60 | 226 | 0.0 | 0.0 | 0.04 | 0.00 | 0.02 | 74 | 1018.3 |
| 20260905034323 | 61 | 237 | 1.7 | 1.7 | 0.00 | 0.00 | 0.01 | 73 | 1018.2 |
| 20260905033323 | 61 | 239 | 1.7 | 2.6 | 0.00 | 0.00 | 0.01 | 71 | 1018.1 |
| 20260905032322 | 62 | 239 | 0.9 | 1.7 | 0.00 | 0.00 | 0.01 | 68 | 1017.7 |
| 20260905031322 | 62 | 231 | 0.0 | 0.9 | 0.00 | 0.00 | 0.01 | 66 | 1017.3 |
| 20260905030321 | 63 | 211 | 0.0 | 1.7 | 0.00 | 0.00 | 0.01 | 65 | 1017.1 |
| 20260905025320 | 64 | 220 | 0.9 | 2.6 | 0.00 | 0.00 | 0.01 | 64 | 1017.6 |
| 20260905024320 | 64 | 228 | 0.0 | 0.0 | 0.00 | 0.00 | 0.01 | 63 | 1017.2 |
| 20260905023319 | 64 | 226 | 0.9 | 1.7 | 0.00 | 0.00 | 0.01 | 64 | 1016.7 |
| 20260905022319 | 64 | 237 | 4.3 | 5.2 | 0.00 | 0.00 | 0.01 | 64 | 1016.7 |
| 20260905021318 | 64 | 312 | 0.9 | 0.9 | 0.00 | 0.00 | 0.01 | 67 | 1016.5 |
| 20260905020318 | 64 | 227 | 0.0 | 0.9 | 0.00 | 0.00 | 0.01 | 70 | 1016.4 |
| 20260905015317 | 65 | 259 | 0.9 | 2.6 | 0.07 | 0.00 | 0.01 | 71 | 1016.0 |
| 20260905014317 | 67 | 232 | 1.7 | 2.6 | 0.00 | 0.00 | 0.00 | 62 | 1015.9 |
| 20260905013316 | 69 | 309 | 3.5 | 4.3 | 0.00 | 0.00 | 0.00 | 61 | 1015.4 |
| 20260905012316 | 71 | 220 | 4.3 | 8.7 | 0.00 | 0.00 | 0.00 | 59 | 1015.1 |
| 20260905011315 | 72 | 254 | 1.7 | 2.6 | 0.00 | 0.00 | 0.00 | 55 | 1014.6 |
| 20260905010314 | 71 | 227 | 0.0 | 0.0 | 0.00 | 0.00 | 0.00 | 56 | 1014.6 |
| 20260905005314 | 70 | 224 | 0.0 | 0.0 | 0.00 | 0.00 | 0.00 | 56 | 1014.4 |
| 20260905004313 | 69 | 221 | 0.0 | 0.0 | 0.00 | 0.00 | 0.00 | 58 | 1014.3 |
| 20260905003313 | 69 | 214 | 0.9 | 1.7 | 0.00 | 0.00 | 0.00 | 58 | 1014.2 |
| 20260905002312 | 69 | 198 | 0.9 | 1.7 | 0.00 | 0.00 | 0.00 | 58 | 1013.9 |
| 20260905001312 | 68 | 229 | 0.0 | 0.0 | 0.00 | 0.00 | 0.00 | 59 | 1014.0 |
| 20260905000311 | 68 | 227 | 0.0 | 0.0 | 0.00 | 0.00 | 0.00 | 59 | 1014.0 |
| 20260904235311 | 68 | 224 | 0.0 | 0.0 | 0.00 | 0.00 | 0.00 | 59 | 1014.0 |
| 20260904234310 | 68 | 230 | 0.0 | 0.0 | 0.00 | 0.00 | 0.00 | 60 | 1013.9 |
| 20260904233310 | 67 | 230 | 0.0 | 0.9 | 0.00 | 0.00 | 0.00 | 61 | 1013.9 |
| 20260904232309 | 68 | 218 | 0.0 | 0.0 | 0.00 | 0.00 | 0.00 | 59 | 1013.8 |
| 20260904231309 | 68 | 200 | 0.9 | 0.9 | 0.00 | 0.00 | 0.00 | 59 | 1013.7 |
| 20260904230308 | 68 | 221 | 0.0 | 0.9 | 0.00 | 0.00 | 0.00 | 59 | 1013.5 |
| 20260904225308 | 68 | 230 | 0.0 | 0.0 | 0.00 | 0.00 | 0.00 | 58 | 1013.7 |
| 20260904224307 | 67 | 238 | 0.9 | 1.7 | 0.00 | 0.00 | 0.00 | 60 | 1013.5 |